Location: Young's Pond
(41.2695°N, 72.7766°W)
Time: 06:07:01
(UTC-04:00)

Spot 4 - Visible Passes

Search period start: 20 August 2017 00:00
Search period end: 30 August 2017 00:00
Orbit: 704 x 724 km, 98.3° (Epoch: 19 August)

Date Brightness Start Highest point End Pass type
(mag) Time Alt. Az. Time Alt. Az. Time Alt. Az.
20 Aug 5.1 23:03:27 35° NNE 23:03:27 35° NNE 23:06:23 10° N visible
21 Aug 6.6 00:42:35 11° WNW 00:42:35 11° WNW 00:42:55 10° NW visible
21 Aug 5.8 22:11:22 17° NE 22:11:22 17° NE 22:13:43 10° NNE visible
21 Aug 5.7 23:50:30 27° NW 23:50:30 27° NW 23:52:46 10° NNW visible
22 Aug 5.3 22:58:25 31° NNE 22:58:25 31° NNE 23:01:10 10° N visible
23 Aug 6.6 00:37:34 12° NW 00:37:34 12° NW 00:38:02 10° NW visible
23 Aug 5.9 22:06:20 15° NE 22:06:20 15° NE 22:08:19 10° NNE visible
23 Aug 5.8 23:45:28 26° NNW 23:45:28 26° NNW 23:47:39 10° NNW visible
24 Aug 5.4 22:53:24 28° NNE 22:53:24 28° NNE 22:55:56 10° N visible
25 Aug 6.6 00:32:32 12° NW 00:32:32 12° NW 00:33:06 10° NW visible
25 Aug 6.0 22:01:19 14° NE 22:01:19 14° NE 22:02:52 10° NNE visible
25 Aug 5.8 23:40:27 26° NNW 23:40:27 26° NNW 23:42:31 10° NNW visible
26 Aug 5.6 22:48:22 25° NNE 22:48:22 25° NNE 22:50:42 10° N visible
27 Aug 6.6 00:27:30 13° NW 00:27:30 13° NW 00:28:08 10° NW visible
27 Aug 6.1 21:56:17 12° NE 21:56:17 12° NE 21:57:21 10° NE visible
27 Aug 5.9 23:35:25 25° NNW 23:35:25 25° NNW 23:37:22 10° NNW visible
28 Aug 5.7 22:43:20 23° NNE 22:43:20 23° NNE 22:45:27 10° N visible
29 Aug 6.6 00:22:29 13° NW 00:22:29 13° NW 00:23:07 10° NW visible
29 Aug 6.2 21:51:16 11° NE 21:51:16 11° NE 21:51:40 10° NE visible
29 Aug 6.0 23:30:24 23° NNW 23:30:24 23° NNW 23:32:13 10° NNW visible
